447  
ASUS46 KSEW 181310  
RWRWA  
 
WASHINGTON REGIONAL WEATHER ROUNDUP  
NATIONAL WEATHER SERVICE SEATTLE WA  
600 AM PDT WED SEP 18 2019  
 
NOTE:"FAIR" INDICATES FEW OR NO CLOUDS BELOW 12,000 FEET WITH NO  
SIGNIFICANT WEATHER AND/OR S TO VISIBILITY
.  
 
WAZ507-509-555>559-181400-  
SEATTLE, TACOMA, EVERETT, AND VICINITY  
 
CITY SKY/WX TMP DP RH WIND PRES REMARKS
 
EVERETT CLOUDY 54 54 100 CALM 29.81S  
BOEING FIELD CLOUDY 57 54 89 CALM 29.80R  
RENTON CLOUDY 56 54 93 CALM 29.80R  
SEATAC AIRPORT CLOUDY 56 54 93 CALM 29.80R  
JBLM-MCCHORD FOG 53 53 100 CALM 29.80R VSB 1  
PUYALLUP CLOUDY 54 54 100 CALM 29.80R  
BREMERTON MOCLDY 54 53 97 CALM 29.80R  
JBLM-FT LEWIS FOG 54 54 100 CALM 29.79R VSB 1/2  
TACOMA NARROWS CLOUDY 54 54 100 SE3 29.80R  

 
 
WAZ001-503-506-510-514-515-181400-  
NORTH INTERIOR  
 
CITY SKY/WX TMP DP RH WIND PRES REMARKS
 
BELLINGHAM CLOUDY 55 52 89 CALM 29.80R  
FRIDAY HARBOR CLOUDY 55 53 93 CALM 29.81R  
EASTSOUND CLOUDY 55 55 100 CALM 29.80R  
PORT ANGELES CLOUDY 54 53 97 W3 29.81R  
EDIZ HOOK CLOUDY 55 54 98 W5 29.81R  
PORT TOWNSEND CLOUDY 54 52 94 CALM 29.79S  
NAS WHIDBEY LGT RAIN 58 52 80 SE6 29.84R  
ARLINGTON CLOUDY 54 53 97 CALM 29.81R  
BURLINGTON CLOUDY 55 54 94 CALM 29.81R  

 
 
WAZ020-022-039-040-504-511-512-181400-  
SOUTHWEST INTERIOR  
 
CITY SKY/WX TMP DP RH WIND PRES REMARKS
 
SHELTON FOG 55 53 93 CALM 29.77R VSB 1/4  
OLYMPIA CLOUDY 51 50 96 CALM 29.79R FOG  
CHEHALIS N/A 54 54 100 CALM 29.79R  
KELSO CLOUDY 56 55 97 CALM 29.79S  
VANCOUVER CLOUDY 55 52 89 SE5 29.79R  
SCAPPOOSE, OR CLOUDY 54 53 97 CALM 29.78R  
PORTLAND, OR CLOUDY 55 51 86 VRB3 29.79R  

 
 
WAZ021-516-517-181400-  
WASHINGTON COAST  
 
CITY SKY/WX TMP DP RH WIND PRES REMARKS
 
FORKS MOCLDY 48 47 96 CALM 29.79S FOG  
HOQUIAM CLOUDY 54 54 100 E6 29.79R  
ASTORIA, OR CLOUDY 55 53 93 CALM 29.76S  

 
 
WAZ019-023-024-040-567>569-181400-  
CASCADE MOUNTAINS AND COLUMBIA GORGE  
 
CITY SKY/WX TMP DP RH WIND PRES REMARKS
 
STAMPEDE PASS NOT AVBL  
TROUTDALE, OR LGT RAIN 57 52 83 SE3 29.80R  
HOOD RIVER, OR PTSUNNY 52 52 100 CALM 29.81R  
THE DALLES, OR MOCLDY 54 51 90 E5 29.80R  

 
 
WAZ026-027-041>044-520-521-181400-  
EAST SLOPES  
 
CITY SKY/WX TMP DP RH WIND PRES REMARKS
 
OMAK RAIN 52 49 89 N7 29.83S FOG  
WENATCHEE CLOUDY 53 51 93 CALM 29.79R  
ELLENSBURG CLOUDY 50 46 86 NE3 29.79R FOG  
YAKIMA CLOUDY 51 48 89 W3 29.79R  
SUNNYSIDE ARPT MOSUNNY 49 49 97 CALM 29.80S  
YAKIMA TC PTSUNNY 50 48 92 CALM 29.78R  

 
 
WAZ028-034-035-181400-  
COLUMBIA BASIN  
 
CITY SKY/WX TMP DP RH WIND PRES REMARKS
 
EPHRATA CLOUDY 54 52 93 NE6 29.78S  
MOSES LAKE CLOUDY 55 49 80 SE3 29.79R  
PASCO PTCLDY 56 56 100 W5 29.80R  
RICHLAND ARPT MOSUNNY 56 53 89 S5 29.80S  
HERMISTON, OR PTCLDY 51 48 89 SE7 29.80R  

 
 
WAZ036>038-181400-  
NORTHEAST WASHINGTON  
 
CITY SKY/WX TMP DP RH WIND PRES REMARKS
 
SPOKANE GEIGER LGT RAIN 51 46 83 NE6 29.82R  
SPOKANE FELTS LGT RAIN 53 50 89 CALM 29.83R  
FAIRCHILD AFB LGT RAIN 50 50 100 E7 29.82R  
COEURDALENE,ID LGT RAIN 52 46 80 N8 29.85R  
DEER PARK CLOUDY 51 46 83 NE8 29.84R  

 
 
WAZ029>033-181400-  
SOUTHEAST WASHINGTON  
 
CITY SKY/WX TMP DP RH WIND PRES REMARKS
 
PULLMAN CLOUDY 55 43 63 E9 29.84S  
LEWISTON, ID CLOUDY 59 47 64 CALM 29.81R  
WALLA WALLA CLOUDY 56 51 84 S5 29.79F  
PENDLETON, OR CLOUDY 52 49 89 S6 29.81S  

 
 
 
CLICK HERE TO GO TO PREVIOUS BULLETINS.

The Nexlab WA Page Main Text Page